When you browse on this site, cookies collect data to enhance your experience and personalize the content and advertising you see.
Visit our Privacy Policy to learn more. By continuing to use the site, you agree to this use of cookies and data.
  • In Czech Republic
  • List of Countries
  • For 7 days
  • Water Temperature
  • Satellite Maps
  • Weather Map
  • Weather Widgets
  • user-avatar
    Login

    Hourly Weather Gold Coast

    Today, 17 November, Saturday

    Time Temperature Precipitation Wind Pressure Humidity
    00:00 +22°C° 0.1 mm 1 mps 758 mmHg 86%
    01:00 +20°C° 0.1 mm 0 mps 758 mmHg 87%
    02:00 +21°C° 0 mm 1 mps 757 mmHg 89%
    03:00 +21°C° 0 mm 1 mps 757 mmHg 90%
    04:00 +21°C° 0 mm 1 mps 757 mmHg 92%
    05:00 +22°C° 0 mm 1 mps 757 mmHg 87%
    06:00 +24°C° 0 mm 1 mps 757 mmHg 81%
    07:00 +25°C° 0 mm 1 mps 758 mmHg 76%
    08:00 +27°C° 0 mm 1 mps 758 mmHg 68%
    09:00 +29°C° 0 mm 1 mps 757 mmHg 60%
    10:00 +31°C° 0 mm 2 mps 757 mmHg 52%
    11:00 +30°C° 0.1 mm 2 mps 757 mmHg 54%
    12:00 +30°C° 0.1 mm 2 mps 757 mmHg 56%
    13:00 +29°C° 0.1 mm 3 mps 756 mmHg 58%
    14:00 +29°C° 0.5 mm 3 mps 756 mmHg 64%
    15:00 +28°C° 0.5 mm 3 mps 756 mmHg 69%
    16:00 +27°C° 0.5 mm 3 mps 756 mmHg 74%
    17:00 +25°C° 0.4 mm 3 mps 756 mmHg 79%
    18:00 +24°C° 0.4 mm 3 mps 756 mmHg 83%
    19:00 +22°C° 0.4 mm 3 mps 757 mmHg 88%
    20:00 +22°C° 1 mm 3 mps 757 mmHg 89%
    21:00 +21°C° 1 mm 3 mps 758 mmHg 91%
    22:00 +21°C° 1 mm 3 mps 758 mmHg 92%
    23:00 +21°C° 0.8 mm 4 mps 758 mmHg 91%

    Tomorrow, 18 November, Sunday

    Time Temperature Precipitation Wind Pressure Humidity
    00:00 +21°C° 0.8 mm 4 mps 758 mmHg 91%
    01:00 +20°C° 0.8 mm 4 mps 758 mmHg 90%
    02:00 +20°C° 0.2 mm 5 mps 758 mmHg 90%
    03:00 +20°C° 0.2 mm 5 mps 758 mmHg 91%
    04:00 +20°C° 0.2 mm 5 mps 758 mmHg 91%
    05:00 +20°C° 0.2 mm 6 mps 759 mmHg 87%
    06:00 +21°C° 0.2 mm 6 mps 759 mmHg 83%
    07:00 +22°C° 0.2 mm 6 mps 759 mmHg 79%
    08:00 +22°C° 0.1 mm 6 mps 760 mmHg 75%
    09:00 +23°C° 0.1 mm 7 mps 760 mmHg 71%
    10:00 +24°C° 0.1 mm 7 mps 760 mmHg 67%
    11:00 +24°C° 0.2 mm 7 mps 760 mmHg 65%
    12:00 +24°C° 0.2 mm 7 mps 760 mmHg 62%
    13:00 +26°C° 0.2 mm 7 mps 759 mmHg 60%
    14:00 +24°C° 0 mm 7 mps 759 mmHg 61%
    15:00 +24°C° 0 mm 7 mps 759 mmHg 61%
    16:00 +23°C° 0 mm 7 mps 759 mmHg 62%
    17:00 +22°C° 0 mm 7 mps 759 mmHg 65%
    18:00 +21°C° 0 mm 7 mps 760 mmHg 68%
    19:00 +20°C° 0 mm 6 mps 760 mmHg 71%
    20:00 +19°C° 0 mm 6 mps 760 mmHg 73%
    21:00 +19°C° 0 mm 6 mps 761 mmHg 75%
    22:00 +17°C° 0 mm 6 mps 761 mmHg 77%
    23:00 +17°C° 0 mm 5 mps 761 mmHg 80%

    Day after tomorrow, 19 November, Monday

    Time Temperature Precipitation Wind Pressure Humidity
    00:00 +16°C° 0 mm 5 mps 760 mmHg 82%
    01:00 +17°C° 0 mm 4 mps 760 mmHg 85%
    02:00 +15°C° 0.1 mm 4 mps 760 mmHg 86%
    03:00 +15°C° 0.1 mm 4 mps 760 mmHg 87%
    04:00 +15°C° 0.1 mm 4 mps 760 mmHg 88%
    05:00 +18°C° 0.1 mm 4 mps 760 mmHg 81%
    06:00 +19°C° 0.1 mm 4 mps 760 mmHg 75%
    07:00 +21°C° 0.1 mm 5 mps 761 mmHg 68%
    08:00 +21°C° 0 mm 5 mps 761 mmHg 63%
    09:00 +22°C° 0 mm 5 mps 761 mmHg 58%
    10:00 +23°C° 0 mm 5 mps 761 mmHg 53%
    11:00 +23°C° 0 mm 5 mps 760 mmHg 52%
    12:00 +25°C° 0 mm 5 mps 760 mmHg 51%
    13:00 +25°C° 0 mm 4 mps 760 mmHg 50%
    14:00 +23°C° 0 mm 4 mps 759 mmHg 53%
    15:00 +23°C° 0 mm 4 mps 759 mmHg 56%
    16:00 +22°C° 0 mm 4 mps 759 mmHg 58%
    17:00 +21°C° 0 mm 4 mps 759 mmHg 64%
    18:00 +20°C° 0 mm 4 mps 760 mmHg 70%
    19:00 +19°C° 0 mm 4 mps 760 mmHg 75%
    20:00 +18°C° 0 mm 3 mps 760 mmHg 78%
    21:00 +17°C° 0 mm 3 mps 760 mmHg 80%
    22:00 +17°C° 0 mm 3 mps 761 mmHg 83%
    23:00 +17°C° 0 mm 3 mps 760 mmHg 84%

    20 November, Tuesday

    Time Temperature Precipitation Wind Pressure Humidity
    00:00 +16°C° 0 mm 2 mps 760 mmHg 85%
    01:00 +16°C° 0 mm 2 mps 759 mmHg 85%
    02:00 +16°C° 0 mm 2 mps 759 mmHg 87%
    03:00 +15°C° 0 mm 2 mps 759 mmHg 88%
    04:00 +15°C° 0 mm 2 mps 759 mmHg 90%
    05:00 +17°C° 0 mm 2 mps 759 mmHg 80%
    06:00 +19°C° 0 mm 2 mps 759 mmHg 71%
    07:00 +22°C° 0 mm 1 mps 759 mmHg 62%
    08:00 +24°C° 0 mm 1 mps 759 mmHg 55%
    09:00 +26°C° 0 mm 2 mps 759 mmHg 48%
    10:00 +28°C° 0 mm 2 mps 759 mmHg 42%
    11:00 +28°C° 0 mm 2 mps 758 mmHg 41%
    12:00 +28°C° 0 mm 2 mps 758 mmHg 41%
    13:00 +29°C° 0 mm 3 mps 757 mmHg 41%
    14:00 +28°C° 0 mm 3 mps 756 mmHg 42%
    15:00 +28°C° 0 mm 4 mps 756 mmHg 44%
    16:00 +27°C° 0 mm 4 mps 755 mmHg 46%
    17:00 +26°C° 0 mm 4 mps 755 mmHg 52%
    18:00 +23°C° 0 mm 4 mps 755 mmHg 59%
    19:00 +21°C° 0 mm 4 mps 756 mmHg 65%
    20:00 +20°C° 0 mm 4 mps 756 mmHg 68%
    21:00 +20°C° 0 mm 5 mps 756 mmHg 71%
    22:00 +19°C° 0 mm 5 mps 756 mmHg 74%
    23:00 +19°C° 0 mm 5 mps 755 mmHg 74%

    21 November, Wednesday

    Time Temperature Precipitation Wind Pressure Humidity
    00:00 +19°C° 0 mm 5 mps 755 mmHg 74%
    01:00 +19°C° 0 mm 5 mps 755 mmHg 74%
    02:00 +19°C° 0 mm 5 mps 754 mmHg 74%
    03:00 +19°C° 0 mm 5 mps 754 mmHg 75%
    04:00 +19°C° 0 mm 5 mps 754 mmHg 75%
    05:00 +20°C° 0 mm 5 mps 754 mmHg 71%
    06:00 +21°C° 0 mm 5 mps 754 mmHg 67%
    07:00 +23°C° 0 mm 6 mps 754 mmHg 63%
    08:00 +26°C° 0 mm 6 mps 754 mmHg 58%
    09:00 +27°C° 0 mm 7 mps 754 mmHg 53%
    10:00 +29°C° 0 mm 7 mps 754 mmHg 49%
    11:00 +32°C° 0 mm 7 mps 753 mmHg 46%
    12:00 +33°C° 0 mm 7 mps 752 mmHg 43%
    13:00 +35°C° 0 mm 8 mps 752 mmHg 40%
    14:00 +34°C° 0 mm 7 mps 751 mmHg 44%
    15:00 +33°C° 0 mm 7 mps 751 mmHg 47%
    16:00 +32°C° 0 mm 7 mps 750 mmHg 50%
    17:00 +29°C° 0.1 mm 7 mps 750 mmHg 60%
    18:00 +27°C° 0.1 mm 7 mps 750 mmHg 71%
    19:00 +24°C° 0.1 mm 7 mps 750 mmHg 81%
    20:00 +24°C° 0.8 mm 7 mps 751 mmHg 84%
    21:00 +23°C° 0.8 mm 7 mps 751 mmHg 88%
    22:00 +23°C° 0.8 mm 6 mps 751 mmHg 91%
    23:00 +23°C° 0.5 mm 7 mps 751 mmHg 91%

    22 November, Thursday

    Time Temperature Precipitation Wind Pressure Humidity
    00:00 +23°C° 0.5 mm 7 mps 750 mmHg 91%
    01:00 +23°C° 0.5 mm 8 mps 750 mmHg 91%
    02:00 +23°C° 0.1 mm 7 mps 750 mmHg 92%
    03:00 +23°C° 0.1 mm 7 mps 750 mmHg 93%
    04:00 +23°C° 0.1 mm 7 mps 749 mmHg 94%
    05:00 +23°C° 0.3 mm 7 mps 750 mmHg 91%
    06:00 +24°C° 0.3 mm 7 mps 750 mmHg 88%
    07:00 +26°C° 0.3 mm 7 mps 751 mmHg 86%
    08:00 +27°C° 0.3 mm 7 mps 751 mmHg 81%
    09:00 +28°C° 0.3 mm 7 mps 750 mmHg 77%
    10:00 +28°C° 0.3 mm 7 mps 750 mmHg 72%
    11:00 +30°C° 0.4 mm 7 mps 750 mmHg 65%
    12:00 +32°C° 0.4 mm 7 mps 749 mmHg 57%
    13:00 +34°C° 0.4 mm 6 mps 749 mmHg 49%
    14:00 +34°C° 0.2 mm 6 mps 748 mmHg 47%
    15:00 +33°C° 0.2 mm 6 mps 748 mmHg 46%
    16:00 +33°C° 0.2 mm 6 mps 748 mmHg 45%
    17:00 +30°C° 0.1 mm 5 mps 748 mmHg 48%
    18:00 +28°C° 0.1 mm 5 mps 749 mmHg 52%
    19:00 +26°C° 0.1 mm 4 mps 749 mmHg 56%
    20:00 +25°C° 0 mm 4 mps 750 mmHg 52%
    21:00 +22°C° 0 mm 4 mps 750 mmHg 48%
    22:00 +21°C° 0 mm 3 mps 750 mmHg 44%
    23:00 +20°C° 0 mm 4 mps 750 mmHg 43%
    Show more